Regional Weather Roundup
Issued by NWS

Home | Current Version | Previous Version | Text Only | Print | Product List | Glossary Off
Versions: 1 2 3 4 5 6 7 8 9 10 11 12 13 14 15 16 17 18 19 20 21 22 23 24 25 26 27 28 29 30 31 32 33 34 35 36 37 38 39 40 41 42 43 44 45 46 47 48 49 50

000
ASUS45 KPSR 290400
RWRAZ

PRELIMINARY ARIZONA REGIONAL HOURLY WEATHER ROUNDUP
NATIONAL WEATHER SERVICE PHOENIX AZ
900 PM MST THU AUG 28 2014

NOTE: FAIR INDICATES FEW OR NO CLOUDS BELOW 12,000 FEET WITH NO
SIGNIFICANT WEATHER AND/OR OBSTRUCTIONS TO VISIBILITY.

AZZ001>003-036-290500-
NORTHWEST ARIZONA

CITY           SKY/WX    TMP DP  RH WIND       PRES   REMARKS
KINGMAN        CLEAR     73  36  25 SE9       30.03R
$$

AZZ004>008-015-016-018-290500-
NORTH CENTRAL ARIZONA

CITY           SKY/WX    TMP DP  RH WIND       PRES   REMARKS
GRAND CANYON     N/A    N/A N/A N/A MISG        N/A
WILLIAMS       CLEAR     59  41  51 S5        30.34S
PRESCOTT       CLEAR     66  48  52 S5        30.15R
FLAGSTAFF      CLEAR     57  42  57 CALM      30.31R
PAYSON         CLEAR     73  41  31 NE7       30.18R
PAGE           CLEAR     79  40  24 S6        30.10R
$$

AZZ009>014-017-290500-
NORTHEAST ARIZONA

CITY           SKY/WX    TMP DP  RH WIND       PRES   REMARKS
WINSLOW        NOT AVBL
SAINT JOHNS    CLEAR     69  45  41 W8        30.18R
$$

AZZ023-290500-
GREATER PHOENIX AREA

CITY           SKY/WX    TMP DP  RH WIND       PRES   REMARKS
PHOENIX        CLEAR     96  48  19 SW6       29.79R
LUKE AFB       NOT AVBL
DEER VALLEY    CLEAR     93  45  19 NW3       29.82R
SCOTTSDALE     CLEAR     95  47  19 CALM      29.84R
MESA-GATEWAY   CLEAR     93  46  20 SW6       29.84R
CHANDLER       CLEAR     93  46  20 SW7       29.81R
$$

AZZ027-028-290500-
SOUTHWEST MARICOPA COUNTY AND PINAL COUNTY

CITY           SKY/WX    TMP DP  RH WIND       PRES   REMARKS
CASA GRANDE    CLEAR     90  46  22 CALM      29.85R
GILA BEND      CLEAR     91  48  22 S3        29.81R
$$

AZZ503-504-507>509-290500-
SOUTHEAST ARIZONA

CITY           SKY/WX    TMP DP  RH WIND       PRES   REMARKS
TUCSON         MOCLDY    90  45  21 N3        29.95R
NOGALES        CLEAR     72  53  51 CALM      30.05R
SIERRA VISTA   PTCLDY    75  48  38 W7        30.11R
SAFFORD        CLEAR     83  46  27 NW10      29.95R
$$

AZZ020-021-025-026-031-290500-
SOUTHWEST ARIZONA

CITY           SKY/WX    TMP DP  RH WIND       PRES   REMARKS
YUMA           CLEAR     99  37  11 W5        29.76R
$$

CAZ031-033-041-043-047-048-061-290500-
SOUTHERN CALIFORNIA

CITY           SKY/WX    TMP DP  RH WIND       PRES   REMARKS
DOWNTOWN L.A.  CLEAR     78  46  32 CALM      29.88R
L.A. AIRPORT   CLEAR     75  52  44 W13       29.89R
SAN DIEGO      CLEAR     76  64  66 NW5       29.92S
BURBANK        CLEAR     85  26  11 W3        29.90R
ONTARIO        CLEAR     82  37  20 W7        29.92R
RIVERSIDE      CLEAR     83  43  24 W5        29.92R
PALM SPRINGS   CLEAR    100  46  16 NW14G30   29.79R
EL CENTRO NAS  CLEAR     95  51  22 SW13      29.75R
IMPERIAL       CLEAR     94  51  23 W9        29.74R
BLYTHE         CLEAR     96  41  15 W3        29.77R
$$

NVZ020-UTZ003-290500-
SOUTHERN NEVADA-UTAH

CITY           SKY/WX    TMP DP  RH WIND       PRES   REMARKS
LAS VEGAS      NOT AVBL
SALT LAKE CITY PTCLDY    69  45  41 S6        30.10R
$$

NMZ009-TXZ055-290500-
NEW MEXICO-WEST TEXAS

CITY           SKY/WX    TMP DP  RH WIND       PRES   REMARKS
ALBUQUERQUE    CLEAR     74  41  30 N7        30.14R
EL PASO        PTCLDY    82  48  30 CALM      30.00R
$$


........................KEY........................
SKY/WX - SKY CONDITION/WEATHER
TMP    - TEMPERATURE IN FAHRENHEIT
DP     - DEW POINT IN FAHRENHEIT
RH     - RELATIVE HUMIDITY IN PERCENT
WIND   - DIRECTION AND SPEED IN MILES PER HOUR (MPH)
VRB    - VARIABLE WIND DIRECTION
PRES   - MEAN SEA LEVEL PRESSURE IN INCHES OF MERCURY
         F - FALLING PRESSURE   R - RISING PRESSURE
         S - STEADY PRESSURE
VSB    - VISIBILITY IN MILES
HX     - HEAT INDEX IN FAHRENHEIT
WCI    - WIND CHILL INDEX IN FAHRENHEIT
TC     - TEMPERATURE IN CELSIUS WHICH IS ALSO KNOWN AS
         TEMPERATURE IN CENTIGRADE
AFB    - AIR FORCE BASE
         LUKE AFB IS LUKE AIR FORCE BASE
         DAVIS-MONTHAN IS DAVIS-MONTHAN AIR FORCE BASE
NAS    - NAVAL AIR STATION
         EL CENTRO NAS IS EL CENTRO NAVAL AIR STATION
N/A    - NOT AVAILABLE


USA.gov is the U.S. government's official web portal to all federal, state and local government web resources and services.